sat.trackr.live / text

‹ back to catalog

STARLINK-2442

NORAD 48106 · 2021-027Q

PAYLOAD ACTIVE UNKNOWN

§ Identity

Operator
Country
US
Launch date
2021-04-07
Launch site
AFETR
Launch vehicle
Mass (kg)
RCS (m²)

Purposes: comms

External: N2YO · Heavens-Above · Gunter

§ Orbital elements

Epoch: 2026-05-24T11:34:03.054720Z

Period
94.01 min
Inclination
53.1605°
Eccentricity
0.0001131
Mean motion
15.31710553 rev/d
Perigee alt
469.9 km
Apogee alt
471.5 km
Semi-major
6,848.8 km
B*
9.2684e-5
RAAN
160.1506°
Arg perigee
86.8779°
Mean anomaly
273.2352°
Rev number
28,429

§ Raw data

STARLINK-24421 48106U 21027Q   26144.48197980  .00002513  00000+0  92684-4 0  99972 48106  53.1605 160.1506 0001131  86.8779 273.2352 15.31710553284291

JSON: /api/v1/satellites/48106 · /tle

For live sub-satellite position, see the globe view (requires WebGL).

§ Visibility from observer

Set your observer location to see the next 7 days of passes ≥ 10°. The values pass through the URL so the page stays shareable.

No JS? Fill the form by hand. The geolocation button needs JavaScript.